Time,TemperatureF,DewpointF,PressureIn,WindDirection,WindDirectionDegrees,WindSpeedMPH,WindSpeedGustMPH,Humidity,HourlyPrecipIn,Conditions,Clouds,dailyrainin,SoftwareType,DateUTC
2013-08-07 00:01:00,66.0,38.0,-100.00,South,175,1.0,5.0,36,0.00,,,0.00,,2013-08-07 08:01:00,
2013-08-07 00:11:00,66.0,38.0,-100.00,South,175,1.0,5.0,36,0.00,,,0.00,,2013-08-07 08:11:00,
2013-08-07 00:20:00,65.0,39.0,-100.00,WSW,255,2.0,5.0,37,0.00,,,0.00,,2013-08-07 08:20:00,
2013-08-07 00:32:00,65.0,38.0,-100.00,SE,130,1.0,5.0,37,0.00,,,0.00,,2013-08-07 08:32:00,
2013-08-07 00:44:00,65.0,38.0,-100.00,SE,130,1.0,5.0,37,0.00,,,0.00,,2013-08-07 08:44:00,
2013-08-07 00:52:00,65.0,39.0,-100.00,WSW,255,2.0,5.0,37,0.00,,,0.00,,2013-08-07 08:52:00,
2013-08-07 01:01:00,65.0,39.0,-100.00,WSW,255,2.0,5.0,37,0.00,,,0.00,,2013-08-07 09:01:00,
2013-08-07 01:11:00,65.0,39.0,-100.00,WSW,255,2.0,5.0,37,0.00,,,0.00,,2013-08-07 09:11:00,
2013-08-07 01:20:00,67.0,39.0,-100.00,WNW,285,2.0,4.0,35,0.00,,,0.00,,2013-08-07 09:20:00,
2013-08-07 01:43:00,67.0,39.0,-100.00,WNW,285,3.0,6.0,36,0.00,,,0.00,,2013-08-07 09:43:00,
2013-08-07 02:01:00,67.0,39.0,-100.00,WNW,285,2.0,4.0,35,0.00,,,0.00,,2013-08-07 10:01:00,
2013-08-07 02:11:00,67.0,39.0,-100.00,WNW,285,2.0,4.0,35,0.00,,,0.00,,2013-08-07 10:11:00,
2013-08-07 02:43:00,67.0,39.0,-100.00,WNW,295,2.0,7.0,35,0.00,,,0.00,,2013-08-07 10:43:00,
2013-08-07 04:20:00,62.0,38.0,-100.00,North,0,2.0,4.0,39,0.00,,,0.00,,2013-08-07 12:20:00,
2013-08-07 04:43:00,63.0,38.0,-100.00,NW,325,3.0,4.0,39,0.00,,,0.00,,2013-08-07 12:43:00,
2013-08-07 05:20:00,63.0,38.0,-100.00,ENE,65,4.0,6.0,39,0.00,,,0.00,,2013-08-07 13:20:00,
2013-08-07 07:02:00,60.0,38.0,-100.00,East,80,3.0,9.0,44,0.00,,,0.00,,2013-08-07 15:02:00,
2013-08-07 07:12:00,60.0,38.0,-100.00,East,80,3.0,9.0,44,0.00,,,0.00,,2013-08-07 15:12:00,
2013-08-07 07:20:00,62.0,39.0,-100.00,NE,50,6.0,9.0,42,0.00,,,0.00,,2013-08-07 15:20:00,
2013-08-07 07:33:00,60.0,38.0,-100.00,NE,55,4.0,10.0,43,0.00,,,0.00,,2013-08-07 15:33:00,
2013-08-07 07:43:00,60.0,38.0,-100.00,NE,55,4.0,10.0,43,0.00,,,0.00,,2013-08-07 15:43:00,
2013-08-07 08:02:00,62.0,39.0,-100.00,NE,50,6.0,9.0,42,0.00,,,0.00,,2013-08-07 16:02:00,
2013-08-07 08:11:00,62.0,39.0,-100.00,NE,50,6.0,9.0,42,0.00,,,0.00,,2013-08-07 16:11:00,
2013-08-07 08:33:00,61.0,38.0,-100.00,NE,45,3.0,9.0,42,0.00,,,0.00,,2013-08-07 16:33:00,
2013-08-07 08:43:00,61.0,38.0,-100.00,NE,45,3.0,9.0,42,0.00,,,0.00,,2013-08-07 16:43:00,
2013-08-07 08:52:00,61.0,39.0,-100.00,NE,40,4.0,13.0,43,0.00,,,0.00,,2013-08-07 16:52:00,
2013-08-07 09:01:00,61.0,39.0,-100.00,NE,40,4.0,13.0,43,0.00,,,0.00,,2013-08-07 17:01:00,
2013-08-07 09:11:00,61.0,39.0,-100.00,NE,40,4.0,13.0,43,0.00,,,0.00,,2013-08-07 17:11:00,
2013-08-07 09:33:00,61.0,39.0,-100.00,ESE,110,4.0,12.0,44,0.00,,,0.00,,2013-08-07 17:33:00,
2013-08-07 09:43:00,61.0,39.0,-100.00,ESE,110,4.0,12.0,44,0.00,,,0.00,,2013-08-07 17:43:00,
2013-08-07 09:52:00,63.0,40.0,-100.00,SE,125,6.0,13.0,42,0.00,,,0.00,,2013-08-07 17:52:00,
2013-08-07 10:02:00,63.0,40.0,-100.00,SE,125,6.0,13.0,42,0.00,,,0.00,,2013-08-07 18:02:00,
2013-08-07 10:11:00,63.0,40.0,-100.00,SE,125,6.0,13.0,42,0.00,,,0.00,,2013-08-07 18:11:00,
2013-08-07 10:20:00,67.0,42.0,-100.00,SE,130,4.0,11.0,39,0.00,,,0.00,,2013-08-07 18:20:00,
2013-08-07 10:32:00,66.0,42.0,-100.00,South,185,2.0,8.0,41,0.00,,,0.00,,2013-08-07 18:32:00,
2013-08-07 10:43:00,66.0,42.0,-100.00,South,185,2.0,8.0,41,0.00,,,0.00,,2013-08-07 18:43:00,
2013-08-07 11:01:00,67.0,42.0,-100.00,SE,130,4.0,11.0,39,0.00,,,0.00,,2013-08-07 19:01:00,
2013-08-07 11:11:00,67.0,42.0,-100.00,SE,130,4.0,11.0,39,0.00,,,0.00,,2013-08-07 19:11:00,
2013-08-07 11:20:00,70.0,43.0,-100.00,SSE,165,1.0,7.0,38,0.00,,,0.00,,2013-08-07 19:20:00,
2013-08-07 11:44:00,68.0,43.0,-100.00,SSE,165,3.0,11.0,39,0.00,,,0.00,,2013-08-07 19:44:00,
2013-08-07 12:02:00,70.0,43.0,-100.00,SSE,165,1.0,7.0,38,0.00,,,0.00,,2013-08-07 20:02:00,
2013-08-07 12:11:00,70.0,43.0,-100.00,SSE,165,1.0,7.0,38,0.00,,,0.00,,2013-08-07 20:11:00,
2013-08-07 12:20:00,72.0,44.0,-100.00,South,185,3.0,7.0,35,0.00,,,0.00,,2013-08-07 20:20:00,
2013-08-07 12:43:00,71.0,44.0,-100.00,East,80,1.0,6.0,37,0.00,,,0.00,,2013-08-07 20:43:00,
2013-08-07 13:01:00,72.0,44.0,-100.00,South,185,3.0,7.0,35,0.00,,,0.00,,2013-08-07 21:01:00,
2013-08-07 13:11:00,72.0,44.0,-100.00,South,185,3.0,7.0,35,0.00,,,0.00,,2013-08-07 21:11:00,
2013-08-07 13:43:00,73.0,44.0,-100.00,SE,145,1.0,6.0,35,0.00,,,0.00,,2013-08-07 21:43:00,
2013-08-07 14:01:00,73.0,44.0,-100.00,SSE,150,2.0,7.0,35,0.00,,,0.00,,2013-08-07 22:01:00,
2013-08-07 14:12:00,73.0,44.0,-100.00,SSE,150,2.0,7.0,35,0.00,,,0.00,,2013-08-07 22:12:00,
2013-08-07 14:20:00,76.0,43.0,-100.00,ESE,105,1.0,4.0,31,0.00,,,0.00,,2013-08-07 22:20:00,
2013-08-07 14:32:00,73.0,43.0,-100.00,NW,315,1.0,5.0,33,0.00,,,0.00,,2013-08-07 22:32:00,
2013-08-07 14:43:00,73.0,43.0,-100.00,NW,315,1.0,5.0,33,0.00,,,0.00,,2013-08-07 22:43:00,
2013-08-07 15:01:00,76.0,43.0,-100.00,ESE,105,1.0,4.0,31,0.00,,,0.00,,2013-08-07 23:01:00,
2013-08-07 15:11:00,76.0,43.0,-100.00,ESE,105,1.0,4.0,31,0.00,,,0.00,,2013-08-07 23:11:00,
2013-08-07 15:20:00,79.0,42.0,-100.00,SSW,195,1.0,7.0,27,0.00,,,0.00,,2013-08-07 23:20:00,
2013-08-07 15:43:00,76.0,42.0,-100.00,SSE,150,1.0,6.0,29,0.00,,,0.00,,2013-08-07 23:43:00,
2013-08-07 15:52:00,79.0,42.0,-100.00,SSW,195,1.0,7.0,27,0.00,,,0.00,,2013-08-07 23:52:00,
2013-08-07 16:01:00,79.0,42.0,-100.00,SSW,195,1.0,7.0,27,0.00,,,0.00,,2013-08-08 00:01:00,
2013-08-07 16:11:00,79.0,42.0,-100.00,SSW,195,1.0,7.0,27,0.00,,,0.00,,2013-08-08 00:11:00,
2013-08-07 16:42:00,80.0,42.0,-100.00,NNE,15,1.0,6.0,25,0.00,,,0.00,,2013-08-08 00:42:00,
2013-08-07 17:02:00,79.0,41.0,-100.00,SE,130,1.0,7.0,25,0.00,,,0.00,,2013-08-08 01:02:00,
2013-08-07 17:11:00,79.0,41.0,-100.00,SE,130,1.0,7.0,25,0.00,,,0.00,,2013-08-08 01:11:00,
2013-08-07 17:20:00,79.0,40.0,-100.00,SE,135,0.0,8.0,24,0.00,,,0.00,,2013-08-08 01:20:00,
2013-08-07 17:32:00,80.0,41.0,-100.00,WNW,285,1.0,7.0,25,0.00,,,0.00,,2013-08-08 01:32:00,
2013-08-07 17:43:00,80.0,41.0,-100.00,WNW,285,1.0,7.0,25,0.00,,,0.00,,2013-08-08 01:43:00,
2013-08-07 17:52:00,79.0,40.0,-100.00,SE,135,0.0,8.0,24,0.00,,,0.00,,2013-08-08 01:52:00,
2013-08-07 18:02:00,79.0,40.0,-100.00,SE,135,0.0,8.0,24,0.00,,,0.00,,2013-08-08 02:02:00,
2013-08-07 18:11:00,79.0,40.0,-100.00,SE,135,0.0,8.0,24,0.00,,,0.00,,2013-08-08 02:11:00,
2013-08-07 18:32:00,81.0,41.0,-100.00,SW,225,2.0,8.0,24,0.00,,,0.00,,2013-08-08 02:32:00,
2013-08-07 18:42:00,81.0,41.0,-100.00,SW,225,2.0,8.0,24,0.00,,,0.00,,2013-08-08 02:42:00,
2013-08-07 18:52:00,80.0,40.0,-100.00,SE,145,2.0,6.0,24,0.00,,,0.00,,2013-08-08 02:52:00,
2013-08-07 19:01:00,80.0,40.0,-100.00,SE,145,2.0,6.0,24,0.00,,,0.00,,2013-08-08 03:01:00,
2013-08-07 19:12:00,80.0,40.0,-100.00,SE,145,2.0,6.0,24,0.00,,,0.00,,2013-08-08 03:12:00,
2013-08-07 19:32:00,80.0,41.0,-100.00,ENE,70,3.0,6.0,24,0.00,,,0.00,,2013-08-08 03:32:00,
2013-08-07 19:43:00,80.0,41.0,-100.00,ENE,70,3.0,6.0,24,0.00,,,0.00,,2013-08-08 03:43:00,
2013-08-07 19:52:00,79.0,40.0,-100.00,West,280,4.0,7.0,24,0.00,,,0.00,,2013-08-08 03:52:00,
2013-08-07 20:01:00,79.0,40.0,-100.00,West,280,4.0,7.0,24,0.00,,,0.00,,2013-08-08 04:01:00,
2013-08-07 20:11:00,79.0,40.0,-100.00,West,280,4.0,7.0,24,0.00,,,0.00,,2013-08-08 04:11:00,
2013-08-07 20:33:00,76.0,39.0,-100.00,WNW,295,4.0,10.0,26,0.00,,,0.00,,2013-08-08 04:33:00,
2013-08-07 20:43:00,76.0,39.0,-100.00,WNW,295,4.0,10.0,26,0.00,,,0.00,,2013-08-08 04:43:00,
2013-08-07 20:53:00,75.0,39.0,-100.00,NE,55,4.0,7.0,26,0.00,,,0.00,,2013-08-08 04:53:00,
2013-08-07 21:02:00,75.0,39.0,-100.00,NE,55,4.0,7.0,26,0.00,,,0.00,,2013-08-08 05:02:00,
2013-08-07 21:11:00,75.0,39.0,-100.00,NE,55,4.0,7.0,26,0.00,,,0.00,,2013-08-08 05:11:00,
2013-08-07 21:20:00,72.0,38.0,-100.00,West,260,2.0,6.0,28,0.00,,,0.00,,2013-08-08 05:20:00,
2013-08-07 21:33:00,74.0,38.0,-100.00,East,85,1.0,3.0,26,0.00,,,0.00,,2013-08-08 05:33:00,
2013-08-07 21:43:00,74.0,38.0,-100.00,East,85,1.0,3.0,26,0.00,,,0.00,,2013-08-08 05:43:00,
2013-08-07 22:01:00,72.0,38.0,-100.00,West,260,2.0,6.0,28,0.00,,,0.00,,2013-08-08 06:01:00,
2013-08-07 22:11:00,72.0,38.0,-100.00,West,260,2.0,6.0,28,0.00,,,0.00,,2013-08-08 06:11:00,
2013-08-07 22:20:00,70.0,38.0,-100.00,West,275,5.0,9.0,30,0.00,,,0.00,,2013-08-08 06:20:00,
2013-08-07 22:32:00,71.0,38.0,-100.00,WSW,255,3.0,6.0,29,0.00,,,0.00,,2013-08-08 06:32:00,
2013-08-07 22:43:00,71.0,38.0,-100.00,WSW,255,3.0,6.0,29,0.00,,,0.00,,2013-08-08 06:43:00,
2013-08-07 23:01:00,70.0,38.0,-100.00,West,275,5.0,9.0,30,0.00,,,0.00,,2013-08-08 07:01:00,
2013-08-07 23:12:00,70.0,38.0,-100.00,West,275,5.0,9.0,30,0.00,,,0.00,,2013-08-08 07:12:00,
2013-08-07 23:43:00,69.0,38.0,-100.00,West,265,5.0,10.0,31,0.00,,,0.00,,2013-08-08 07:43:00,